AirNav   Air Wisconsin pilot careers
 
 315 users online  

Z40 Goose Bay Airport
Goose Bay, Alaska, USA

GOING TO GOOSE BAY?


FAA INFORMATION EFFECTIVE 24 MAY 2018

Location

FAA Identifier: Z40
Lat/Long: 61-23-40.7400N / 149-50-32.1700W
61-23.679000N / 149-50.536167W
61.3946500 / -149.8422694
(estimated)
Elevation: 78 ft. / 24 m (estimated)
Variation: 25E (1985)
Time zone: UTC -8 (UTC -9 during Standard Time)
Zip code: 99654

Airport Operations

Airport use: Open to the public
Activation date: 10/1949
Control tower: no
ARTCC: ANCHORAGE CENTER
FSS: KENAI FLIGHT SERVICE STATION [907-283-8469]
NOTAMs facility: ENA (NOTAM-D service available)
Attendance: UNATNDD
Wind indicator: yes, WINDSOCK UNRELIABLE.
Segmented circle: yes
SEGMENTED CIRCLE IN POOR CONDITION.

Airport Communications

CTAF: 122.9
WX AWOS-3 at FRN (9 nm SE): 118.525 (907-384-0132)
WX AWOS-3P at BCV (10 nm E): 135.55 (907-688-0826)
WX ASOS at MRI (11 nm S): PHONE 907-271-5277
WX ASOS at LHD (13 nm S): PHONE 907-245-1618
WX AWOS-3P at IYS (14 nm NE): 135.25 (907-373-3801)
WX ASOS at ANC (14 nm S): 118.4 (907-271-5278)

Nearby radio navigation aids

VOR radial/distance  VOR name  Freq  Var
BGQr142/11.1BIG LAKE VORTAC112.5019E
TEDr356/14.0ANCHORAGE VOR/DME113.1518E

 
NDB name  Hdg/Dist  Freq  Var  ID
CAMPBELL LAKE008/14.733816ECMQ -.-. -- --.-

Airport Services

Airframe service: NONE
Powerplant service: NONE
Bottled oxygen: NONE
Bulk oxygen: NONE

Runway Information

Runway 8/26

Dimensions: 3000 x 75 ft. / 914 x 23 m
Surface: gravel, in good condition
Runway edge markings: RY 08 & 26 NSTD MKDS; RY ENDS MKD WITH THLD PANELS ONLY.
RUNWAY 8  RUNWAY 26
Latitude: 61-23.693667N61-23.664333N
Longitude: 149-51.048667W149-50.023667W
Elevation: 78.0 ft.78.0 ft.
Traffic pattern: rightleft
Markings: NSTD
Obstructions: 68 ft. trees, 1050 ft. from runway, 15:1 slope to clear45 ft. trees, 590 ft. from runway, 22 ft. left and right of centerline, 13:1 slope to clear

Airport Ownership and Management from official FAA records

Ownership: Publicly-owned
Owner: ALASKA DOT&PF CENTRAL REGION
PO BOX 196900
ANCHORAGE, AK 99519-6900
Phone 907-269-0782
Manager: KYLER HYLTON
289 INNER SPRINGER LOOP RD.
PALMER, AK 99645
Phone (907) 246-3325

Airport Operational Statistics

Aircraft operations: avg 105/week *
100% transient general aviation
* for 12-month period ending 31 December 2013

Additional Remarks

RY COND NOT MONITORED; RCMD VISUAL INSPECTION PRIOR TO USING.
808 FT AGL LGTD TOWER 11700 FT NNW OF RY.
NO STATE MAINTENANCE PERFORMED ON RUNWAY.
WX CAMERA AVBL ON INTERNET AT HTTP://AVCAMS.FAA.GOV
LARGE MILITARY ACFT OPR AT LOW ALT AROUND R-2203 AND IN VICINITY OF GOOSE BAY, BIRCHWOOD, BIG LAKE ARPTS. MIL ACFT MONITORING MULTIPLE CTAF FREQUENCIES BASED ON FLIGHT PROFILES. SEE CURRENT ANCHORAGE VFR TAC INSERT AND CENTER NOTAMS.

Instrument Procedures

There are no published instrument procedures at Z40.

Some nearby airports with instrument procedures:

PAGQ - Big Lake Airport (8 nm N)
PAED - Elmendorf Air Force Base (9 nm S)
PAFR - Bryant Army Airfield Heliport (9 nm SE)
PAMR - Merrill Field Airport (11 nm S)
PAWS - Wasilla Airport (14 nm NE)
PANC - Ted Stevens Anchorage International Airport (14 nm S)
 
Loc | Ops | Rwys | IFR | FBO | Links
Com | Nav | Svcs | Stats | Notes

Crowley
 
Area around Z40 (Goose Bay Airport)
 
Road maps at: MapQuest Bing Google
 
Aerial photo
WARNING: Photo may not be current or correct
Aerial photo of Z40 (Goose Bay Airport)
Do you have a better or more recent aerial photo of Goose Bay Airport that you would like to share? If so, please send us your photo.

 
Sectional chart

 
Airport distance calculator
Flying to Goose Bay Airport? Find the distance to fly.

From to Z40

Sunrise and sunset
Times for 26-May-2018
 Local
(UTC-8)
 Zulu
(UTC)
Morning civil twilight03:1411:14
Sunrise04:4512:45
Sunset23:0807:08
Evening civil twilight00:3908:39

Current date and time
Zulu (UTC)  26-May-2018 08:46:17
Local (UTC-8)  26-May-2018 00:46:17
 
METAR
PAED 
9nm S 
260758Z AUTO 00000KT 10SM FEW049 OVC085 09/05 A2964 RMK AO2 RAE56DZB56E58 SLP033
PABV 
9nm E 
260756Z AUTO 12004KT 10SM OVC090 09/03 A2965 RMK AO2 SLP050 T00940033 401560050 PNO $
PAFR 
9nm SE 
260758Z AUTO 00000KT 10SM BKN070 OVC095 09/03 A2962 RMK AO2 RAB36E48 SLP037 P0000 T00900029
PAMR 
11nm S 
260753Z 00000KT 10SM OVC090 11/03 A2964 RMK AO2 SLP039 T01060028
PALH 
13nm S 
260753Z 19008KT 10SM FEW065 OVC085 10/02 A2965 RMK AO2 SLP041 T01000022
PANC 
15nm S 
260753Z 15013KT 10SM FEW050 SCT095 BKN120 BKN200 10/03 A2964 RMK AO2 SLP038 T01000028
TAF
PAED 
9nm S 
260630Z 2606/2709 VRB06KT 9999 FEW050 BKN070 QNH2960INS BECMG 2621/2622 22009KT 9999 VCSH SCT020 BKN030 620609 QNH2958INS TX14/2703Z TN03/2612Z
PANC 
15nm S 
260531Z 2606/2712 16010G18KT P6SM BKN150 FM261100 VRB04KT P6SM BKN080 FM262100 27008KT P6SM SCT080 FM270300 21008KT P6SM VCSH SCT060
NOTAMs
Click for the latest NOTAMs
NOTAMs are issued by the DoD/FAA and will open in a separate window not controlled by AirNav.

 

 
 

Would you like to see your business listed on this page?

 If your business provides an interesting product or service to pilots, flight crews, aircraft, or users of the Goose Bay Airport, you should consider listing it here.  To start the listing process, click on the button below
 
Add a business
 

Other Pages about Goose Bay Airport

Update a link
 
Copyright © AirNav, LLC. All rights reserved. Privacy Policy  Contact